STARLINK-1527, 46048

Orbit data source: Space-Track

STARLINK-1527, 46048 is a payload satellite owned by SpaceX/Seattle (US) in LEO that was launched on Fri, 07 Aug 2020 UTC via an FALCON 9 launch vehicle from the Air Force Eastern Test Range (AFETR). Payload-class satellites include a variety of spacecraft equipped with specific instruments for various scientific and technological missions. These include communications satellites like Starlink; space stations such as the ISS; scientific satellites like the Hubble; Earth observation satellites from companies like Planet Labs, Umbra, and HawkEye 360; GPS; miniature CubeSats for education and research; and military/defense satellites.

Loading next visibility...
Identifier
46048, 2020-055X
Orbit
LEO
Country
Flag of USUS
Related business
Manufacturer
SpaceX/Seattle
Mission
Operational Commercial Communications
Bus & Motor
STARLINK, Unknown motor
Mass
260 kg wet, ~248 kg dry
Launch date (UTC)
2020-08-07 (5 years ago)
Launch vehicle
FALCON 9
Launch site
Air Force Eastern Test Range (AFETR)
Object type
Payload
Rocket body
Debris
Shape & HBR
Box + 1 Pan, 4.4 m
Radar Cross Section
13.562 m², Large (>1 m²)

Expand to show TLE details & history
Last TLE update: 21 hours ago

TLE from 21 hours ago
0 STARLINK-1527
1 46048U 20055X   25258.51133321  .00001856  00000-0  14350-3 0  9991
2 46048  53.0549 183.0255 0001482  96.1395 263.9763 15.06397233282605
Epoch: 2025-09-15T12:16Z
TLE epoch observation values (Epoch: 2025-09-15T12:16:19.189Z)
Latitude
-0°
Longitude
4.23061°
Altitude
548.207 km
Speed
7.589 km/s
True Right ascension
12h 12m 06s
True Declination
0° 00' 00"
Sunlit
Object was in daylight at epoch
Visualization orbit readout
Latitude
Unknown
Longitude
Unknown
Altitude
Unknown
Speed
Unknown
Apparent Right ascension
Unknown
Apparent Declination
Unknown
Sunlit
N/A
Visualization observer readout
Local Sidereal Time
02:15:44
Azimuth
Unknown
Elevation
Unknown
Doppler factor
Unknown
Orbital elements
Apogee altitude
548.517 km
Perigee altitude
546.464 km
Semi-major axis
6,925.628 km
Eccentricity
0.00015
Inclination
53.0549°
RAAN
183.0255°
Arg. of periapsis
96.1395°
True anomaly
263.95941°
Mean anomaly
263.9763°
Eccentric anomaly
263.96786°
Mean motion
3.76578 °/min
Orbital period
95.6 mins
BSTAR
0.0001435
Loading maneuver chart data...
Computing Atmospheric mass density...
Loading historical data...
Loading historical data...
Loading historical data...
Loading historical data...
Loading historical data...
Loading historical data...
Loading historical data...

Documentation

Showing up to 5 results
|